Tracking 19846 objects as of 20-Sep-2019
HD Live streaming from Space Station
objects crossing your sky now

FENGYUN 1C DEB

Track FENGYUN 1C DEB now!
10-day predictions


NORAD ID: 32173
Int'l Code: 1999-025CTT
Perigee: 768.6 km
Apogee: 876.2 km
Inclination: 99.6 °
Period: 101.2 minutes
Semi major axis: 7193 km
RCS: 0.009 m2 (small)
Launch date: May 10, 1999
Source: People's Republic of China (PRC)
Launch site: Taiyaun Space Center, China (TSC)

Note: This is SATELLITE DEBRIS
aabbcc
Your satellite tracking list
Your tracking list is empty




NASA's NSSDC Master Catalog

Two Line Element Set (TLE):
1 32173U 99025CTT 19259.90669206  .00000926  00000-0  42172-3 0  9991
2 32173  99.6042 303.7149 0074770 145.9522 214.6483 14.22987702629320
Source of the keplerian elements: AFSPC